User: anonymous   Login
Location: Congrier
(47.8099°N, 1.1170°W)
Time: 19:25:09
(UTC+00:00)
Language:

CZ-4B R/B - Orbit

View from above orbital plane
View from above orbital plane
View from above satellite
View from above satellite

Ground track
Ground track

The orbit data is extracted from the following two-line orbital elements,

1 27432U 02024C   23153.84518111  .00000063  00000-0  56109-4 0  9993
2 27432  99.0234 188.2706 0050463   8.2873 164.9650 14.14214431 86421
Epoch (UTC): 02 June 2023 20:17:03
Eccentricity: 0.0050463
inclination: 99.0234°
perigee height: 808 km
apogee height: 881 km
right ascension of ascending node: 188.2706°
argument of perigee: 8.2873°
revolutions per day: 14.14214431
mean anomaly at epoch: 164.9650°
orbit number at epoch: 8642

The dashed part of the orbit path shows where the satellite is in the earth's shadow,  

DLR